Retour au catalogue

STARLINK-3928

ActifCommunicationsVLEO
NORAD 52606·PAYLOAD·🇺🇸 United States

Lancé May 14, 2022 depuis Cape Canaveral Space Force Station

Loading…

Prochains Passages (prochaines 24 heures)

TLE

FraisSource: CelesTrak SupGP

Époque: Sep 14, 2026, 21:08 UTC

1 52606C 22052J   26257.88104167 -.00030102  00000+0 -14773-2 0  2575
2 52606  53.1611 145.8872 0001705  91.5590  67.4214 15.17596451    14

Suivez STARLINK-3928 en temps réel avec AllMySat

Download on the App Store